date,time,SUV Intensity [MED/Hr],UV Index,Daily total [MED],Since Last [MED]
18/03/2022,00:05:52,0.000,0.0,0.0,0.0
18/03/2022,00:07:00,0.000,0.0,0.0,0.0
18/03/2022,00:07:53,0.000,0.0,0.0,0.0
18/03/2022,00:08:53,0.000,0.0,0.0,0.0
18/03/2022,00:09:53,0.000,0.0,0.0,0.0
18/03/2022,00:10:52,0.000,0.0,0.0,0.0
18/03/2022,00:11:52,0.000,0.0,0.0,0.0
18/03/2022,00:12:53,0.000,0.0,0.0,0.0
18/03/2022,00:13:53,0.000,0.0,0.0,0.0
18/03/2022,00:14:52,0.000,0.0,0.0,0.0
18/03/2022,00:15:53,0.000,0.0,0.0,0.0
18/03/2022,00:17:01,0.000,0.0,0.0,0.0
18/03/2022,00:18:01,0.000,0.0,0.0,0.0
18/03/2022,00:18:52,0.000,0.0,0.0,0.0
18/03/2022,00:19:53,0.000,0.0,0.0,0.0
18/03/2022,00:20:53,0.001,0.0,0.0,0.0
18/03/2022,00:21:53,0.000,0.0,0.0,0.0
18/03/2022,00:22:53,0.000,0.0,0.0,0.0
18/03/2022,00:23:53,0.000,0.0,0.0,0.0
18/03/2022,00:25:02,0.000,0.0,0.0,0.0
18/03/2022,00:25:52,0.000,0.0,0.0,0.0
18/03/2022,00:26:52,0.000,0.0,0.0,0.0
18/03/2022,00:27:53,0.000,0.0,0.0,0.0
18/03/2022,00:28:52,0.000,0.0,0.0,0.0
18/03/2022,00:29:52,0.000,0.0,0.0,0.0
18/03/2022,00:30:52,0.000,0.0,0.0,0.0
18/03/2022,00:31:52,0.000,0.0,0.0,0.0
18/03/2022,00:32:55,0.000,0.0,0.0,0.0
18/03/2022,00:33:53,0.000,0.0,0.0,0.0
18/03/2022,00:34:52,-0.000,0.0,0.0,0.0
18/03/2022,00:35:52,0.000,0.0,0.0,0.0
18/03/2022,00:36:53,0.000,0.0,0.0,0.0
18/03/2022,00:37:53,0.000,0.0,0.0,0.0
18/03/2022,00:38:52,0.000,0.0,0.0,0.0
18/03/2022,00:39:53,0.000,0.0,0.0,0.0
18/03/2022,00:41:01,0.000,0.0,0.0,0.0
18/03/2022,00:41:53,0.000,0.0,0.0,0.0
18/03/2022,00:42:52,0.000,0.0,0.0,0.0
18/03/2022,00:43:53,0.000,0.0,0.0,0.0
18/03/2022,00:44:53,0.000,0.0,0.0,0.0
18/03/2022,00:45:53,0.000,0.0,0.0,0.0
18/03/2022,00:46:52,0.000,0.0,0.0,0.0
18/03/2022,00:48:01,0.000,0.0,0.0,0.0
18/03/2022,00:48:53,0.000,0.0,0.0,0.0
18/03/2022,00:49:53,0.000,0.0,0.0,0.0
18/03/2022,00:50:53,0.000,0.0,0.0,0.0
18/03/2022,00:51:53,0.000,0.0,0.0,0.0
18/03/2022,00:52:53,0.000,0.0,0.0,0.0
18/03/2022,00:53:53,0.000,0.0,0.0,0.0
18/03/2022,00:54:53,0.000,0.0,0.0,0.0
18/03/2022,00:55:53,0.000,0.0,0.0,0.0
18/03/2022,00:56:53,0.000,0.0,0.0,0.0
18/03/2022,00:57:53,0.000,0.0,0.0,0.0
18/03/2022,00:58:53,0.000,0.0,0.0,0.0
18/03/2022,00:59:53,0.000,0.0,0.0,0.0
18/03/2022,01:00:53,0.000,0.0,0.0,0.0
18/03/2022,01:01:53,0.000,0.0,0.0,0.0
18/03/2022,01:02:53,0.000,0.0,0.0,0.0
18/03/2022,01:03:53,0.000,0.0,0.0,0.0
18/03/2022,01:04:52,0.000,0.0,0.0,0.0
18/03/2022,01:05:53,0.000,0.0,0.0,0.0
18/03/2022,01:06:53,0.000,0.0,0.0,0.0
18/03/2022,01:07:53,0.000,0.0,0.0,0.0
18/03/2022,01:08:52,0.000,0.0,0.0,0.0
18/03/2022,01:09:53,0.000,0.0,0.0,0.0
18/03/2022,01:10:53,0.000,0.0,0.0,0.0
18/03/2022,01:12:01,0.000,0.0,0.0,0.0
18/03/2022,01:12:53,0.000,0.0,0.0,0.0
18/03/2022,01:13:53,0.000,0.0,0.0,0.0
18/03/2022,01:14:53,0.000,0.0,0.0,0.0
18/03/2022,01:15:53,0.000,0.0,0.0,0.0
18/03/2022,01:16:53,0.000,0.0,0.0,0.0
18/03/2022,01:17:52,0.000,0.0,0.0,0.0
18/03/2022,01:18:53,0.000,0.0,0.0,0.0
18/03/2022,01:19:54,0.000,0.0,0.0,0.0
18/03/2022,01:20:52,0.000,0.0,0.0,0.0
18/03/2022,01:22:01,0.000,0.0,0.0,0.0
18/03/2022,01:22:53,0.000,0.0,0.0,0.0
18/03/2022,01:23:52,0.000,0.0,0.0,0.0
18/03/2022,01:24:52,0.000,0.0,0.0,0.0
18/03/2022,01:25:53,0.000,0.0,0.0,0.0
18/03/2022,01:26:53,0.000,0.0,0.0,0.0
18/03/2022,01:27:53,0.000,0.0,0.0,0.0
18/03/2022,01:28:53,0.000,0.0,0.0,0.0
18/03/2022,01:29:52,0.000,0.0,0.0,0.0
18/03/2022,01:30:53,0.000,0.0,0.0,0.0
18/03/2022,01:32:01,0.000,0.0,0.0,0.0
18/03/2022,01:32:53,0.000,0.0,0.0,0.0
18/03/2022,01:33:53,0.000,0.0,0.0,0.0
18/03/2022,01:34:52,0.000,0.0,0.0,0.0
18/03/2022,01:35:53,0.000,0.0,0.0,0.0
18/03/2022,01:36:53,0.000,0.0,0.0,0.0
18/03/2022,01:37:53,0.000,0.0,0.0,0.0
18/03/2022,01:38:52,0.000,0.0,0.0,0.0
18/03/2022,01:39:53,0.000,0.0,0.0,0.0
18/03/2022,01:40:53,0.000,0.0,0.0,0.0
18/03/2022,01:42:01,0.001,0.0,0.0,0.0
18/03/2022,01:42:53,0.000,0.0,0.0,0.0
18/03/2022,01:43:53,0.000,0.0,0.0,0.0
18/03/2022,01:44:53,0.000,0.0,0.0,0.0
18/03/2022,01:45:53,0.000,0.0,0.0,0.0
18/03/2022,01:46:53,0.000,0.0,0.0,0.0
18/03/2022,01:47:53,0.000,0.0,0.0,0.0
18/03/2022,01:48:53,0.000,0.0,0.0,0.0
18/03/2022,01:49:53,0.000,0.0,0.0,0.0
18/03/2022,01:50:53,0.001,0.0,0.0,0.0
18/03/2022,01:51:53,0.000,0.0,0.0,0.0
18/03/2022,01:52:53,0.000,0.0,0.0,0.0
18/03/2022,01:53:52,0.000,0.0,0.0,0.0
18/03/2022,01:54:53,0.000,0.0,0.0,0.0
18/03/2022,01:56:01,0.000,0.0,0.0,0.0
18/03/2022,01:56:53,0.000,0.0,0.0,0.0
18/03/2022,01:57:53,0.000,0.0,0.0,0.0
18/03/2022,01:58:53,0.001,0.0,0.0,0.0
18/03/2022,01:59:52,0.001,0.0,0.0,0.0
18/03/2022,02:00:53,0.000,0.0,0.0,0.0
18/03/2022,02:01:52,0.000,0.0,0.0,0.0
18/03/2022,02:03:01,0.000,0.0,0.0,0.0
18/03/2022,02:03:51,0.001,0.0,0.0,0.0
18/03/2022,02:04:53,0.001,0.0,0.0,0.0
18/03/2022,02:06:03,0.000,0.0,0.0,0.0
18/03/2022,02:06:52,0.000,0.0,0.0,0.0
18/03/2022,02:08:54,0.000,0.0,0.0,0.0
18/03/2022,02:09:53,0.000,0.0,0.0,0.0
18/03/2022,02:10:53,0.000,0.0,0.0,0.0
18/03/2022,02:11:53,0.000,0.0,0.0,0.0
18/03/2022,02:12:53,0.000,0.0,0.0,0.0
18/03/2022,02:13:53,0.000,0.0,0.0,0.0
18/03/2022,02:14:53,0.000,0.0,0.0,0.0
18/03/2022,02:16:01,0.000,0.0,0.0,0.0
18/03/2022,02:16:52,0.000,0.0,0.0,0.0
18/03/2022,02:17:53,0.000,0.0,0.0,0.0
18/03/2022,02:19:01,0.000,0.0,0.0,0.0
18/03/2022,02:19:52,0.000,0.0,0.0,0.0
18/03/2022,02:20:53,0.000,0.0,0.0,0.0
18/03/2022,02:21:53,0.000,0.0,0.0,0.0
18/03/2022,02:22:52,0.000,0.0,0.0,0.0
18/03/2022,02:23:53,0.000,0.0,0.0,0.0
18/03/2022,02:24:53,0.000,0.0,0.0,0.0
18/03/2022,02:25:52,0.001,0.0,0.0,0.0
18/03/2022,02:27:01,0.001,0.0,0.0,0.0
18/03/2022,02:27:53,0.001,0.0,0.0,0.0
18/03/2022,02:28:53,0.001,0.0,0.0,0.0
18/03/2022,02:29:53,0.001,0.0,0.0,0.0
18/03/2022,02:30:53,0.001,0.0,0.0,0.0
18/03/2022,02:31:53,0.001,0.0,0.0,0.0
18/03/2022,02:32:53,0.001,0.0,0.0,0.0
18/03/2022,02:33:53,-0.000,0.0,0.0,0.0
18/03/2022,02:34:53,0.001,0.0,0.0,0.0
18/03/2022,02:35:53,0.001,0.0,0.0,0.0
18/03/2022,02:37:03,0.000,0.0,0.0,0.0
18/03/2022,02:37:52,0.000,0.0,0.0,0.0
18/03/2022,02:38:53,0.000,0.0,0.0,0.0
18/03/2022,02:39:53,0.001,0.0,0.0,0.0
18/03/2022,02:40:53,0.001,0.0,0.0,0.0
18/03/2022,02:41:53,0.001,0.0,0.0,0.0
18/03/2022,02:42:53,0.000,0.0,0.0,0.0
18/03/2022,02:43:53,0.001,0.0,0.0,0.0
18/03/2022,02:44:53,0.001,0.0,0.0,0.0
18/03/2022,02:45:53,0.000,0.0,0.0,0.0
18/03/2022,02:46:53,0.001,0.0,0.0,0.0
18/03/2022,02:47:53,0.000,0.0,0.0,0.0
18/03/2022,02:48:53,0.001,0.0,0.0,0.0
18/03/2022,02:50:01,0.001,0.0,0.0,0.0
18/03/2022,02:51:01,0.000,0.0,0.0,0.0
18/03/2022,02:51:52,0.001,0.0,0.0,0.0
18/03/2022,02:52:53,0.001,0.0,0.0,0.0
18/03/2022,02:53:53,0.001,0.0,0.0,0.0
18/03/2022,02:54:53,0.001,0.0,0.0,0.0
18/03/2022,02:55:53,0.002,0.0,0.0,0.0
18/03/2022,02:56:53,0.000,0.0,0.0,0.0
18/03/2022,02:57:53,0.001,0.0,0.0,0.0
18/03/2022,02:58:53,0.001,0.0,0.0,0.0
18/03/2022,02:59:53,0.001,0.0,0.0,0.0
18/03/2022,03:01:01,0.000,0.0,0.0,0.0
18/03/2022,03:01:53,0.001,0.0,0.0,0.0
18/03/2022,03:02:52,0.001,0.0,0.0,0.0
18/03/2022,03:04:01,0.000,0.0,0.0,0.0
18/03/2022,03:04:53,0.001,0.0,0.0,0.0
18/03/2022,03:05:53,0.001,0.0,0.0,0.0
18/03/2022,03:06:53,0.000,0.0,0.0,0.0
18/03/2022,03:07:53,0.000,0.0,0.0,0.0
18/03/2022,03:08:53,-0.001,0.0,0.0,0.0
18/03/2022,03:09:53,0.001,0.0,0.0,0.0
18/03/2022,03:10:53,0.001,0.0,0.0,0.0
18/03/2022,03:11:53,0.001,0.0,0.0,0.0
18/03/2022,03:12:53,0.000,0.0,0.0,0.0
18/03/2022,03:14:01,0.001,0.0,0.0,0.0
18/03/2022,03:14:53,0.001,0.0,0.0,0.0
18/03/2022,03:15:53,0.001,0.0,0.0,0.0
18/03/2022,03:16:53,0.002,0.0,0.0,0.0
18/03/2022,03:17:53,0.001,0.0,0.0,0.0
18/03/2022,03:18:53,0.000,0.0,0.0,0.0
18/03/2022,03:19:53,0.001,0.0,0.0,0.0
18/03/2022,03:20:53,0.001,0.0,0.0,0.0
18/03/2022,03:21:53,0.000,0.0,0.0,0.0
18/03/2022,03:22:52,0.000,0.0,0.0,0.0
18/03/2022,03:24:01,0.001,0.0,0.0,0.0
18/03/2022,03:25:00,0.001,0.0,0.0,0.0
18/03/2022,03:25:53,0.000,0.0,0.0,0.0
18/03/2022,03:26:53,0.001,0.0,0.0,0.0
18/03/2022,03:27:53,0.000,0.0,0.0,0.0
18/03/2022,03:28:53,0.001,0.0,0.0,0.0
18/03/2022,03:29:53,0.001,0.0,0.0,0.0
18/03/2022,03:30:53,0.001,0.0,0.0,0.0
18/03/2022,03:31:53,0.001,0.0,0.0,0.0
18/03/2022,03:32:53,0.001,0.0,0.0,0.0
18/03/2022,03:33:53,0.001,0.0,0.0,0.0
18/03/2022,03:35:02,0.000,0.0,0.0,0.0
18/03/2022,03:35:53,0.001,0.0,0.0,0.0
18/03/2022,03:36:53,0.001,0.0,0.0,0.0
18/03/2022,03:38:01,0.001,0.0,0.0,0.0
18/03/2022,03:38:53,0.002,0.0,0.0,0.0
18/03/2022,03:39:53,0.001,0.0,0.0,0.0
18/03/2022,03:40:53,0.001,0.0,0.0,0.0
18/03/2022,03:41:54,0.001,0.0,0.0,0.0
18/03/2022,03:42:53,0.002,0.0,0.0,0.0
18/03/2022,03:43:53,0.001,0.0,0.0,0.0
18/03/2022,03:45:01,0.001,0.0,0.0,0.0
18/03/2022,03:45:53,0.001,0.0,0.0,0.0
18/03/2022,03:46:53,0.001,0.0,0.0,0.0
18/03/2022,03:48:01,0.001,0.0,0.0,0.0
18/03/2022,03:48:53,0.000,0.0,0.0,0.0
18/03/2022,03:49:53,0.000,0.0,0.0,0.0
18/03/2022,03:50:53,0.002,0.0,0.0,0.0
18/03/2022,03:51:53,0.001,0.0,0.0,0.0
18/03/2022,03:52:53,0.001,0.0,0.0,0.0
18/03/2022,03:53:53,0.001,0.0,0.0,0.0
18/03/2022,03:54:53,0.001,0.0,0.0,0.0
18/03/2022,03:55:53,0.001,0.0,0.0,0.0
18/03/2022,03:56:53,0.001,0.0,0.0,0.0
18/03/2022,03:57:53,0.001,0.0,0.0,0.0
18/03/2022,03:58:53,0.001,0.0,0.0,0.0
18/03/2022,03:59:53,0.000,0.0,0.0,0.0
18/03/2022,04:00:53,0.002,0.0,0.0,0.0
18/03/2022,04:01:53,0.001,0.0,0.0,0.0
18/03/2022,04:02:53,0.001,0.0,0.0,0.0
18/03/2022,04:03:53,0.001,0.0,0.0,0.0
18/03/2022,04:04:53,0.001,0.0,0.0,0.0
18/03/2022,04:05:53,0.001,0.0,0.0,0.0
18/03/2022,04:07:46,0.000,0.0,0.0,0.0
18/03/2022,04:08:53,0.001,0.0,0.0,0.0
18/03/2022,04:09:53,0.001,0.0,0.0,0.0
18/03/2022,04:10:53,0.001,0.0,0.0,0.0
18/03/2022,04:11:53,0.001,0.0,0.0,0.0
18/03/2022,04:12:53,0.000,0.0,0.0,0.0
18/03/2022,04:13:53,0.001,0.0,0.0,0.0
18/03/2022,04:14:53,0.001,0.0,0.0,0.0
18/03/2022,04:16:02,0.001,0.0,0.0,0.0
18/03/2022,04:16:52,0.001,0.0,0.0,0.0
18/03/2022,04:17:53,0.001,0.0,0.0,0.0
18/03/2022,04:19:02,0.001,0.0,0.0,0.0
18/03/2022,04:19:53,0.001,0.0,0.0,0.0
18/03/2022,04:21:01,0.001,0.0,0.0,0.0
18/03/2022,04:21:53,0.001,0.0,0.0,0.0
18/03/2022,04:22:53,0.001,0.0,0.0,0.0
18/03/2022,04:23:53,0.001,0.0,0.0,0.0
18/03/2022,04:24:53,0.001,0.0,0.0,0.0
18/03/2022,04:26:01,0.000,0.0,0.0,0.0
18/03/2022,04:26:53,0.001,0.0,0.0,0.0
18/03/2022,04:27:53,0.001,0.0,0.0,0.0
18/03/2022,04:28:53,0.001,0.0,0.0,0.0
18/03/2022,04:29:53,0.001,0.0,0.0,0.0
18/03/2022,04:30:53,0.001,0.0,0.0,0.0
18/03/2022,04:31:53,0.001,0.0,0.0,0.0
18/03/2022,04:32:53,0.001,0.0,0.0,0.0
18/03/2022,04:33:53,0.001,0.0,0.0,0.0
18/03/2022,04:34:53,0.001,0.0,0.0,0.0
18/03/2022,04:35:53,0.002,0.0,0.0,0.0
18/03/2022,04:36:53,0.001,0.0,0.0,0.0
18/03/2022,04:37:53,0.001,0.0,0.0,0.0
18/03/2022,04:38:53,0.001,0.0,0.0,0.0
18/03/2022,04:39:53,0.001,0.0,0.0,0.0
18/03/2022,04:40:53,0.001,0.0,0.0,0.0
18/03/2022,04:41:53,0.001,0.0,0.0,0.0
18/03/2022,04:42:53,-0.001,0.0,0.0,0.0
18/03/2022,04:43:53,0.000,0.0,0.0,0.0
18/03/2022,04:44:53,0.001,0.0,0.0,0.0
18/03/2022,04:45:53,0.001,0.0,0.0,0.0
18/03/2022,04:47:01,0.001,0.0,0.0,0.0
18/03/2022,04:47:53,0.001,0.0,0.0,0.0
18/03/2022,04:48:54,0.001,0.0,0.0,0.0
18/03/2022,04:49:53,0.001,0.0,0.0,0.0
18/03/2022,04:50:53,0.001,0.0,0.0,0.0
18/03/2022,04:51:53,0.001,0.0,0.0,0.0
18/03/2022,04:52:53,0.001,0.0,0.0,0.0
18/03/2022,04:53:53,0.001,0.0,0.0,0.0
18/03/2022,04:54:54,0.000,0.0,0.0,0.0
18/03/2022,04:55:53,0.001,0.0,0.0,0.0
18/03/2022,04:57:01,0.001,0.0,0.0,0.0
18/03/2022,04:57:53,0.001,0.0,0.0,0.0
18/03/2022,04:58:53,0.001,0.0,0.0,0.0
18/03/2022,04:59:53,0.002,0.0,0.0,0.0
18/03/2022,05:00:53,0.000,0.0,0.0,0.0
18/03/2022,05:01:54,0.001,0.0,0.0,0.0
18/03/2022,05:02:53,0.000,0.0,0.0,0.0
18/03/2022,05:03:53,0.001,0.0,0.0,0.0
18/03/2022,05:04:53,0.001,0.0,0.0,0.0
18/03/2022,05:05:54,0.001,0.0,0.0,0.0
18/03/2022,05:06:53,0.001,0.0,0.0,0.0
18/03/2022,05:07:53,0.001,0.0,0.0,0.0
18/03/2022,05:08:53,0.001,0.0,0.0,0.0
18/03/2022,05:09:53,0.000,0.0,0.0,0.0
18/03/2022,05:11:01,0.001,0.0,0.0,0.0
18/03/2022,05:11:53,0.000,0.0,0.0,0.0
18/03/2022,05:12:53,0.001,0.0,0.0,0.0
18/03/2022,05:14:54,0.001,0.0,0.0,0.0
18/03/2022,05:15:54,0.001,0.0,0.0,0.0
18/03/2022,05:16:53,0.001,0.0,0.0,0.0
18/03/2022,05:18:01,0.000,0.0,0.0,0.0
18/03/2022,05:18:53,0.000,0.0,0.0,0.0
18/03/2022,05:19:53,0.001,0.0,0.0,0.0
18/03/2022,05:21:01,0.001,0.0,0.0,0.0
18/03/2022,05:21:53,0.000,0.0,0.0,0.0
18/03/2022,05:23:02,0.000,0.0,0.0,0.0
18/03/2022,05:24:02,0.000,0.0,0.0,0.0
18/03/2022,05:24:51,0.001,0.0,0.0,0.0
18/03/2022,05:25:53,0.001,0.0,0.0,0.0
18/03/2022,05:26:53,0.001,0.0,0.0,0.0
18/03/2022,05:28:02,0.001,0.0,0.0,0.0
18/03/2022,05:28:53,0.000,0.0,0.0,0.0
18/03/2022,05:29:53,0.000,0.0,0.0,0.0
18/03/2022,05:30:54,0.000,0.0,0.0,0.0
18/03/2022,05:31:54,0.000,0.0,0.0,0.0
18/03/2022,05:32:53,0.001,0.0,0.0,0.0
18/03/2022,05:33:53,0.001,0.0,0.0,0.0
18/03/2022,05:34:54,0.002,0.0,0.0,0.0
18/03/2022,05:35:53,0.000,0.0,0.0,0.0
18/03/2022,05:36:53,0.001,0.0,0.0,0.0
18/03/2022,05:37:54,0.001,0.0,0.0,0.0
18/03/2022,05:39:02,0.001,0.0,0.0,0.0
18/03/2022,05:39:53,0.001,0.0,0.0,0.0
18/03/2022,05:40:53,0.001,0.0,0.0,0.0
18/03/2022,05:41:54,0.001,0.0,0.0,0.0
18/03/2022,05:42:53,0.001,0.0,0.0,0.0
18/03/2022,05:43:53,0.001,0.0,0.0,0.0
18/03/2022,05:44:53,0.001,0.0,0.0,0.0
18/03/2022,05:45:54,0.000,0.0,0.0,0.0
18/03/2022,05:46:53,0.001,0.0,0.0,0.0
18/03/2022,05:47:53,0.000,0.0,0.0,0.0
18/03/2022,05:48:53,0.001,0.0,0.0,0.0
18/03/2022,05:49:53,0.001,0.0,0.0,0.0
18/03/2022,05:50:53,0.001,0.0,0.0,0.0
18/03/2022,05:52:02,0.001,0.0,0.0,0.0
18/03/2022,05:52:53,0.001,0.0,0.0,0.0
18/03/2022,05:53:44,0.000,0.0,0.0,0.0
18/03/2022,05:54:55,0.001,0.0,0.0,0.0
18/03/2022,05:55:53,0.001,0.0,0.0,0.0
18/03/2022,05:56:53,0.001,0.0,0.0,0.0
18/03/2022,05:57:53,0.000,0.0,0.0,0.0
18/03/2022,05:58:53,0.001,0.0,0.0,0.0
18/03/2022,05:59:54,0.001,0.0,0.0,0.0
18/03/2022,06:00:53,0.001,0.0,0.0,0.0
18/03/2022,06:02:01,0.001,0.0,0.0,0.0
18/03/2022,06:03:01,0.001,0.0,0.0,0.0
18/03/2022,06:03:54,0.000,0.0,0.0,0.0
18/03/2022,06:04:54,0.001,0.0,0.0,0.0
18/03/2022,06:05:53,0.001,0.0,0.0,0.0
18/03/2022,06:06:54,0.001,0.0,0.0,0.0
18/03/2022,06:07:53,0.001,0.0,0.0,0.0
18/03/2022,06:08:53,0.000,0.0,0.0,0.0
18/03/2022,06:10:03,0.000,0.0,0.0,0.0
18/03/2022,06:10:52,0.001,0.0,0.0,0.0
18/03/2022,06:11:53,0.001,0.0,0.0,0.0
18/03/2022,06:12:53,0.000,0.0,0.0,0.0
18/03/2022,06:13:53,0.002,0.0,0.0,0.0
18/03/2022,06:14:54,0.001,0.0,0.0,0.0
18/03/2022,06:15:53,0.002,0.0,0.0,0.0
18/03/2022,06:16:53,0.002,0.0,0.0,0.0
18/03/2022,06:17:53,0.003,0.0,0.0,0.0
18/03/2022,06:18:53,0.002,0.0,0.0,0.0
18/03/2022,06:19:53,0.002,0.0,0.0,0.0
18/03/2022,06:20:53,0.002,0.0,0.0,0.0
18/03/2022,06:21:53,0.003,0.0,0.0,0.0
18/03/2022,06:23:02,0.002,0.0,0.0,0.0
18/03/2022,06:23:54,0.003,0.0,0.0,0.0
18/03/2022,06:24:53,0.003,0.0,0.0,0.0
18/03/2022,06:25:53,0.003,0.0,0.0,0.0
18/03/2022,06:26:54,0.003,0.0,0.0,0.0
18/03/2022,06:27:53,0.004,0.0,0.0,0.0
18/03/2022,06:28:53,0.003,0.0,0.0,0.0
18/03/2022,06:29:53,0.004,0.0,0.0,0.0
18/03/2022,06:30:53,0.004,0.0,0.0,0.0
18/03/2022,06:31:53,0.004,0.0,0.0,0.0
18/03/2022,06:33:01,0.004,0.0,0.0,0.0
18/03/2022,06:33:53,0.005,0.0,0.0,0.0
18/03/2022,06:34:54,0.005,0.0,0.0,0.0
18/03/2022,06:35:53,0.005,0.0,0.0,0.0
18/03/2022,06:36:53,0.006,0.0,0.0,0.0
18/03/2022,06:37:53,0.006,0.0,0.0,0.0
18/03/2022,06:38:53,0.006,0.0,0.0,0.0
18/03/2022,06:39:53,0.007,0.0,0.0,0.0
18/03/2022,06:41:01,0.007,0.0,0.0,0.0
18/03/2022,06:41:53,0.008,0.0,0.0,0.0
18/03/2022,06:42:54,0.008,0.0,0.001,0.001
18/03/2022,06:43:53,0.007,0.0,0.001,0.0
18/03/2022,06:44:53,0.007,0.0,0.001,0.0
18/03/2022,06:45:54,0.009,0.0,0.001,0.0
18/03/2022,06:46:53,0.009,0.0,0.001,0.0
18/03/2022,06:47:53,0.009,0.0,0.001,0.0
18/03/2022,06:48:54,0.010,0.0,0.001,0.0
18/03/2022,06:49:53,0.010,0.0,0.002,0.001
18/03/2022,06:50:53,0.011,0.0,0.002,0.0
18/03/2022,06:51:53,0.010,0.0,0.002,0.0
18/03/2022,06:52:53,0.010,0.0,0.002,0.0
18/03/2022,06:53:53,0.011,0.0,0.002,0.0
18/03/2022,06:54:54,0.013,0.0,0.002,0.0
18/03/2022,06:55:53,0.012,0.0,0.003,0.001
18/03/2022,06:56:53,0.013,0.0,0.003,0.0
18/03/2022,06:57:54,0.014,0.0,0.003,0.0
18/03/2022,06:58:53,0.015,0.0,0.003,0.0
18/03/2022,06:59:53,0.014,0.0,0.004,0.001
18/03/2022,07:00:53,0.015,0.0,0.004,0.0
18/03/2022,07:01:53,0.015,0.0,0.004,0.0
18/03/2022,07:02:54,0.017,0.0,0.004,0.0
18/03/2022,07:03:53,0.015,0.0,0.005,0.001
18/03/2022,07:04:53,0.017,0.0,0.005,0.0
18/03/2022,07:05:54,0.018,0.0,0.005,0.0
18/03/2022,07:06:53,0.018,0.0,0.005,0.0
18/03/2022,07:07:55,0.019,0.0,0.006,0.001
18/03/2022,07:08:53,0.018,0.0,0.006,0.0
18/03/2022,07:09:54,0.019,0.0,0.006,0.0
18/03/2022,07:10:53,0.020,0.0,0.007,0.001
18/03/2022,07:12:01,0.021,0.0,0.007,0.0
18/03/2022,07:12:54,0.020,0.0,0.007,0.0
18/03/2022,07:13:53,0.021,0.0,0.008,0.001
18/03/2022,07:14:53,0.022,0.0,0.008,0.0
18/03/2022,07:15:54,0.023,0.0,0.008,0.0
18/03/2022,07:16:54,0.025,0.0,0.009,0.001
18/03/2022,07:17:53,0.025,0.0,0.009,0.0
18/03/2022,07:18:53,0.026,0.0,0.01,0.001
18/03/2022,07:19:53,0.028,0.0,0.01,0.0
18/03/2022,07:20:54,0.028,0.0,0.011,0.001
18/03/2022,07:22:02,0.029,0.0,0.011,0.0
18/03/2022,07:22:53,0.030,0.0,0.012,0.001
18/03/2022,07:23:53,0.032,0.0,0.012,0.0
18/03/2022,07:24:53,0.033,0.0,0.013,0.001
18/03/2022,07:25:53,0.033,0.0,0.013,0.0
18/03/2022,07:26:54,0.034,0.0,0.014,0.001
18/03/2022,07:27:53,0.035,0.0,0.014,0.0
18/03/2022,07:28:54,0.036,0.0,0.015,0.001
18/03/2022,07:29:54,0.036,0.0,0.015,0.0
18/03/2022,07:30:54,0.036,0.0,0.016,0.001
18/03/2022,07:31:53,0.038,0.0,0.017,0.001
18/03/2022,07:32:54,0.039,0.0,0.017,0.0
18/03/2022,07:33:53,0.040,0.0,0.018,0.001
18/03/2022,07:34:53,0.042,0.0,0.019,0.001
18/03/2022,07:35:53,0.044,0.0,0.019,0.0
18/03/2022,07:36:53,0.045,0.0,0.02,0.001
18/03/2022,07:37:54,0.047,0.0,0.021,0.001
18/03/2022,07:38:53,0.049,0.0,0.022,0.001
18/03/2022,07:39:54,0.051,0.0,0.023,0.001
18/03/2022,07:40:54,0.052,0.0,0.023,0.0
18/03/2022,07:41:54,0.055,0.0,0.024,0.001
18/03/2022,07:43:02,0.057,0.0,0.025,0.001
18/03/2022,07:43:53,0.058,0.0,0.026,0.001
18/03/2022,07:44:54,0.058,0.0,0.027,0.001
18/03/2022,07:46:02,0.059,0.0,0.028,0.001
18/03/2022,07:46:54,0.060,0.0,0.029,0.001
18/03/2022,07:47:54,0.061,0.0,0.03,0.001
18/03/2022,07:48:53,0.062,0.0,0.031,0.001
18/03/2022,07:49:53,0.064,0.0,0.032,0.001
18/03/2022,07:50:55,0.065,0.0,0.033,0.001
18/03/2022,07:51:53,0.067,0.0,0.034,0.001
18/03/2022,07:52:53,0.068,0.0,0.035,0.001
18/03/2022,07:53:56,0.070,0.0,0.037,0.002
18/03/2022,07:54:53,0.072,0.0,0.038,0.001
18/03/2022,07:55:54,0.073,0.0,0.039,0.001
18/03/2022,07:56:53,0.073,0.0,0.04,0.001
18/03/2022,07:57:53,0.076,0.0,0.041,0.001
18/03/2022,07:58:53,0.078,0.0,0.043,0.002
18/03/2022,08:00:01,0.082,0.0,0.044,0.001
18/03/2022,08:00:53,0.083,0.0,0.045,0.001
18/03/2022,08:01:54,0.086,0.0,0.047,0.002
18/03/2022,08:03:01,0.089,0.0,0.049,0.002
18/03/2022,08:03:54,0.091,0.0,0.05,0.001
18/03/2022,08:04:54,0.091,0.0,0.051,0.001
18/03/2022,08:05:53,0.093,0.0,0.053,0.002
18/03/2022,08:06:53,0.094,0.0,0.054,0.001
18/03/2022,08:07:53,0.096,0.0,0.056,0.002
18/03/2022,08:08:53,0.096,0.0,0.058,0.002
18/03/2022,08:09:53,0.098,0.0,0.059,0.001
18/03/2022,08:10:54,0.100,0.0,0.061,0.002
18/03/2022,08:11:53,0.101,0.0,0.063,0.002
18/03/2022,08:12:53,0.101,0.0,0.064,0.001
18/03/2022,08:14:02,0.102,0.0,0.066,0.002
18/03/2022,08:14:54,0.105,0.0,0.068,0.002
18/03/2022,08:15:54,0.106,0.0,0.069,0.001
18/03/2022,08:16:54,0.110,0.0,0.071,0.002
18/03/2022,08:17:53,0.110,0.0,0.073,0.002
18/03/2022,08:18:53,0.112,0.0,0.075,0.002
18/03/2022,08:19:54,0.113,0.0,0.077,0.002
18/03/2022,08:20:54,0.109,0.0,0.079,0.002
18/03/2022,08:21:53,0.112,0.0,0.08,0.001
18/03/2022,08:22:53,0.114,0.0,0.082,0.002
18/03/2022,08:24:02,0.118,0.0,0.085,0.003
18/03/2022,08:24:54,0.120,0.0,0.086,0.001
18/03/2022,08:25:53,0.118,0.0,0.088,0.002
18/03/2022,08:26:53,0.122,0.0,0.09,0.002
18/03/2022,08:27:55,0.124,0.0,0.092,0.002
18/03/2022,08:28:54,0.130,0.0,0.094,0.002
18/03/2022,08:29:54,0.132,0.0,0.097,0.003
18/03/2022,08:30:54,0.133,0.0,0.099,0.002
18/03/2022,08:31:53,0.133,0.0,0.101,0.002
18/03/2022,08:32:53,0.140,0.0,0.103,0.002
18/03/2022,08:33:54,0.139,0.0,0.106,0.003
18/03/2022,08:35:02,0.141,0.0,0.108,0.002
18/03/2022,08:35:53,0.141,0.0,0.11,0.002
18/03/2022,08:36:53,0.145,0.0,0.113,0.003
18/03/2022,08:37:53,0.148,0.0,0.115,0.002
18/03/2022,08:38:53,0.152,0.0,0.118,0.003
18/03/2022,08:39:54,0.152,0.0,0.12,0.002
18/03/2022,08:40:54,0.152,0.0,0.123,0.003
18/03/2022,08:41:53,0.153,0.0,0.125,0.002
18/03/2022,08:42:53,0.158,0.0,0.128,0.003
18/03/2022,08:43:54,0.161,0.0,0.131,0.003
18/03/2022,08:45:02,0.169,0.0,0.134,0.003
18/03/2022,08:45:54,0.171,0.0,0.136,0.002
18/03/2022,08:46:53,0.170,0.0,0.139,0.003
18/03/2022,08:47:53,0.173,0.0,0.142,0.003
18/03/2022,08:48:54,0.178,0.0,0.145,0.003
18/03/2022,08:49:54,0.180,0.0,0.148,0.003
18/03/2022,08:50:53,0.182,0.0,0.151,0.003
18/03/2022,08:51:54,0.184,0.0,0.154,0.003
18/03/2022,08:53:06,0.184,0.0,0.157,0.003
18/03/2022,08:54:56,0.182,0.0,0.163,0.006
18/03/2022,08:55:54,0.177,0.0,0.166,0.003
18/03/2022,08:56:53,0.173,0.0,0.169,0.003
18/03/2022,08:57:53,0.170,0.0,0.172,0.003
18/03/2022,08:58:54,0.170,0.0,0.175,0.003
18/03/2022,08:59:54,0.173,0.0,0.177,0.002
18/03/2022,09:00:53,0.193,0.0,0.18,0.003
18/03/2022,09:01:54,0.195,0.0,0.184,0.004
18/03/2022,09:02:54,0.191,0.0,0.187,0.003
18/03/2022,09:03:53,0.206,0.0,0.19,0.003
18/03/2022,09:05:02,0.211,0.0,0.194,0.004
18/03/2022,09:06:00,0.217,0.0,0.198,0.004
18/03/2022,09:06:53,0.215,0.0,0.201,0.003
18/03/2022,09:07:53,0.194,0.0,0.204,0.003
18/03/2022,09:08:54,0.196,0.0,0.208,0.004
18/03/2022,09:09:54,0.201,0.0,0.211,0.003
18/03/2022,09:10:53,0.209,0.0,0.214,0.003
18/03/2022,09:11:53,0.210,0.0,0.218,0.004
18/03/2022,09:12:54,0.194,0.0,0.221,0.003
18/03/2022,09:13:54,0.192,0.0,0.224,0.003
18/03/2022,09:14:53,0.197,0.0,0.228,0.004
18/03/2022,09:16:01,0.199,0.0,0.231,0.003
18/03/2022,09:16:53,0.204,0.0,0.234,0.003
18/03/2022,09:17:54,0.212,0.0,0.238,0.004
18/03/2022,09:18:54,0.211,0.0,0.241,0.003
18/03/2022,09:19:53,0.208,0.0,0.245,0.004
18/03/2022,09:20:53,0.216,0.0,0.248,0.003
18/03/2022,09:21:53,0.226,1.0,0.252,0.004
18/03/2022,09:22:54,0.241,1.0,0.256,0.004
18/03/2022,09:23:53,0.239,1.0,0.26,0.004
18/03/2022,09:24:54,0.243,1.0,0.264,0.004
18/03/2022,09:26:02,0.252,1.0,0.269,0.005
18/03/2022,09:26:54,0.254,1.0,0.272,0.003
18/03/2022,09:27:54,0.254,1.0,0.276,0.004
18/03/2022,09:29:02,0.250,1.0,0.281,0.005
18/03/2022,09:29:54,0.255,1.0,0.285,0.004
18/03/2022,09:30:53,0.254,1.0,0.289,0.004
18/03/2022,09:31:53,0.250,1.0,0.293,0.004
18/03/2022,09:32:54,0.253,1.0,0.297,0.004
18/03/2022,09:33:53,0.260,1.0,0.302,0.005
18/03/2022,09:34:54,0.268,1.0,0.306,0.004
18/03/2022,09:35:54,0.270,1.0,0.311,0.005
18/03/2022,09:36:54,0.272,1.0,0.315,0.004
18/03/2022,09:37:54,0.270,1.0,0.32,0.005
18/03/2022,09:39:02,0.264,1.0,0.325,0.005
18/03/2022,09:40:01,0.259,1.0,0.329,0.004
18/03/2022,09:40:53,0.264,1.0,0.333,0.004
18/03/2022,09:41:54,0.260,1.0,0.337,0.004
18/03/2022,09:42:54,0.256,1.0,0.342,0.005
18/03/2022,09:43:53,0.253,1.0,0.346,0.004
18/03/2022,09:44:55,0.250,1.0,0.35,0.004
18/03/2022,09:45:54,0.243,1.0,0.354,0.004
18/03/2022,09:46:55,0.241,1.0,0.358,0.004
18/03/2022,09:47:53,0.240,1.0,0.362,0.004
18/03/2022,09:48:54,0.242,1.0,0.366,0.004
18/03/2022,09:49:54,0.254,1.0,0.37,0.004
18/03/2022,09:50:54,0.264,1.0,0.375,0.005
18/03/2022,09:51:53,0.278,1.0,0.379,0.004
18/03/2022,09:52:53,0.287,1.0,0.384,0.005
18/03/2022,09:53:55,0.295,1.0,0.389,0.005
18/03/2022,09:54:53,0.299,1.0,0.394,0.005
18/03/2022,09:56:02,0.292,1.0,0.399,0.005
18/03/2022,09:56:54,0.296,1.0,0.404,0.005
18/03/2022,09:57:53,0.304,1.0,0.409,0.005
18/03/2022,09:58:53,0.320,1.0,0.414,0.005
18/03/2022,09:59:53,0.326,1.0,0.419,0.005
18/03/2022,10:00:54,0.340,1.0,0.425,0.006
18/03/2022,10:01:54,0.343,1.0,0.431,0.006
18/03/2022,10:02:53,0.338,1.0,0.436,0.005
18/03/2022,10:03:53,0.334,1.0,0.442,0.006
18/03/2022,10:04:53,0.336,1.0,0.448,0.006
18/03/2022,10:05:54,0.336,1.0,0.453,0.005
18/03/2022,10:06:54,0.340,1.0,0.459,0.006
18/03/2022,10:07:54,0.334,1.0,0.464,0.005
18/03/2022,10:08:53,0.323,1.0,0.47,0.006
18/03/2022,10:09:53,0.315,1.0,0.475,0.005
18/03/2022,10:10:53,0.315,1.0,0.48,0.005
18/03/2022,10:11:54,0.312,1.0,0.486,0.006
18/03/2022,10:12:54,0.319,1.0,0.491,0.005
18/03/2022,10:13:53,0.329,1.0,0.496,0.005
18/03/2022,10:14:53,0.320,1.0,0.502,0.006
18/03/2022,10:15:54,0.320,1.0,0.507,0.005
18/03/2022,10:16:54,0.317,1.0,0.512,0.005
18/03/2022,10:17:54,0.312,1.0,0.518,0.006